This demonstration page uses our WeatherBlox Daily Observations layout. Learn more.

Left ArrowRight Arrow

Hourly Observations for February 11, 2016

Temp ( °F °C ) Dew Point ( °F °C ) Humidity (%) Winds ( mph kmh ) Pressure ( in mb ) Visibility ( mi km ) Precip ( " mm )
12:14 am 00:14 Mostly Cloudy 14 -10 7 -14 73 73 W 7 11 30.24 1024 10 16 N/A
12:34 am 00:34 Partly Cloudy 10 -12 5 -15 79 79 W 7 11 30.27 1025 10 16 N/A
12:55 am 00:55 Partly Cloudy 10 -12 5 -15 79 79 W 7 11 30.24 1024 10 16 N/A
1:14 am 01:14 Mostly Cloudy 10 -12 5 -15 79 79 WNW 6 9 30.27 1025 10 16 N/A
1:34 am 01:34 Partly Cloudy 10 -12 5 -15 79 79 W 5 7 30.27 1025 10 16 N/A
1:55 am 01:55 Mostly Cloudy 9 -13 5 -15 85 85 W 5 7 30.27 1025 10 16 N/A
2:14 am 02:14 Cloudy 10 -12 5 -15 79 79 W 5 7 30.27 1025 10 16 N/A
2:34 am 02:34 Cloudy 12 -11 7 -14 79 79 W 6 9 30.24 1024 10 16 N/A
2:55 am 02:55 Cloudy 12 -11 7 -14 79 79 WNW 6 9 30.24 1024 10 16 N/A
3:14 am 03:14 Cloudy 12 -11 7 -14 79 79 WNW 5 7 30.24 1024 10 16 N/A
3:34 am 03:34 Cloudy 14 -10 7 -14 73 73 WNW 5 7 30.24 1024 10 16 N/A
3:55 am 03:55 Cloudy 14 -10 7 -14 73 73 WNW 5 7 30.24 1024 10 16 N/A
4:14 am 04:14 Cloudy 14 -10 7 -14 73 73 W 3 6 30.24 1024 10 16 N/A
4:34 am 04:34 Cloudy 14 -10 9 -13 79 79 WNW 5 7 30.24 1024 10 16 N/A
4:54 am 04:54 Cloudy 14 -10 7 -14 73 73 WNW 5 7 30.24 1024 10 16 N/A
5:14 am 05:14 Mostly Cloudy 12 -11 7 -14 79 79 W 6 9 30.24 1024 10 16 N/A
5:34 am 05:34 Clear 10 -12 5 -15 79 79 W 6 9 30.30 1026 10 16 N/A
5:54 am 05:54 Clear 10 -12 5 -15 79 79 WNW 5 7 30.30 1026 10 16 N/A
6:14 am 06:14 Clear 10 -12 5 -15 79 79 NNW 3 6 30.30 1026 10 16 N/A
6:35 am 06:35 Clear 7 -14 3 -16 85 85 NNW 5 7 30.30 1026 10 16 N/A
6:54 am 06:54 Partly Cloudy 7 -14 3 -16 85 85 NW 5 7 30.30 1026 10 16 N/A
7:14 am 07:14 Clear 7 -14 3 -16 85 85 NW 3 6 30.30 1026 10 16 N/A
7:35 am 07:35 Clear 7 -14 3 -16 85 85 WNW 3 6 30.33 1027 10 16 N/A
7:54 am 07:54 Sunny 7 -14 3 -16 85 85 WNW 3 6 30.33 1027 10 16 N/A
8:14 am 08:14 Sunny 10 -12 5 -15 79 79 NW 5 7 30.33 1027 10 16 N/A
8:35 am 08:35 Sunny 10 -12 5 -15 79 79 NW 3 6 30.33 1027 7 11 N/A
8:54 am 08:54 Sunny 12 -11 5 -15 73 73 NW 5 7 30.36 1028 10 16 N/A
9:14 am 09:14 Sunny 14 -10 7 -14 73 73 NNW 5 7 30.33 1027 10 16 N/A
9:35 am 09:35 Sunny 16 -9 7 -14 67 67 NNW 7 11 30.33 1027 10 16 N/A
9:54 am 09:54 Sunny 16 -9 7 -14 67 67 N 5 7 30.33 1027 10 16 N/A
10:14 am 10:14 Sunny 18 -8 7 -14 62 62 N 6 9 30.33 1027 10 16 N/A
10:35 am 10:35 Sunny 18 -8 7 -14 62 62 N 6 9 30.36 1028 10 16 N/A
10:54 am 10:54 Sunny 18 -8 5 -15 58 58 NNW 3 6 30.36 1028 10 16 N/A
11:14 am 11:14 Sunny 19 -7 7 -14 58 58 NNW 3 6 30.36 1028 10 16 N/A
11:35 am 11:35 Sunny 19 -7 5 -15 53 53 N 5 7 30.36 1028 10 16 N/A
11:54 am 11:54 Sunny 21 -6 5 -15 49 49 W 3 6 30.36 1028 10 16 N/A
12:14 pm 12:14 Sunny 21 -6 5 -15 49 49 N N/A 30.36 1028 10 16 N/A
12:35 pm 12:35 Sunny 21 -6 7 -14 54 54 NNE 3 6 30.33 1027 10 16 N/A
12:54 pm 12:54 Sunny 21 -6 7 -14 54 54 N N/A 30.33 1027 10 16 N/A
1:14 pm 13:14 Partly Cloudy 21 -6 5 -15 49 49 WNW 3 6 30.33 1027 10 16 N/A
1:35 pm 13:35 Mostly Cloudy 21 -6 5 -15 49 49 N N/A 30.33 1027 10 16 N/A
1:54 pm 13:54 Partly Cloudy 21 -6 7 -14 54 54 N N/A 30.33 1027 10 16 N/A
2:14 pm 14:14 Partly Cloudy 23 -5 7 -14 50 50 W 3 6 30.33 1027 10 16 N/A
2:35 pm 14:35 Partly Cloudy 25 -4 7 -14 46 46 N N/A 30.33 1027 10 16 N/A
2:54 pm 14:54 Sunny 23 -5 7 -14 50 50 WSW 3 6 30.33 1027 10 16 N/A
3:14 pm 15:14 Partly Cloudy 25 -4 7 -14 46 46 N N/A 30.33 1027 10 16 N/A
3:35 pm 15:35 Mostly Cloudy 25 -4 9 -13 50 50 N 6 9 30.33 1027 10 16 N/A
3:54 pm 15:54 Mostly Cloudy 25 -4 9 -13 50 50 N 6 9 30.33 1027 10 16 N/A
4:14 pm 16:14 Partly Cloudy 25 -4 7 -14 46 46 NNE 6 9 30.33 1027 10 16 N/A
4:35 pm 16:35 Partly Cloudy 25 -4 7 -14 46 46 N N/A 30.33 1027 10 16 N/A
4:54 pm 16:54 Sunny 25 -4 7 -14 46 46 N 7 11 30.33 1027 10 16 N/A
5:14 pm 17:14 Sunny 25 -4 7 -14 46 46 N 5 7 30.33 1027 10 16 N/A
5:35 pm 17:35 Sunny 23 -5 7 -14 50 50 N 3 6 30.33 1027 10 16 N/A
5:54 pm 17:54 Sunny 23 -5 9 -13 54 54 N N/A 30.33 1027 10 16 N/A
6:14 pm 18:14 Sunny 21 -6 9 -13 58 58 N N/A 30.36 1028 10 16 N/A
6:34 pm 18:34 Mostly Cloudy 21 -6 10 -12 63 63 S 5 7 30.36 1028 10 16 N/A
6:54 pm 18:54 Partly Cloudy 21 -6 10 -12 63 63 SSW 3 6 30.36 1028 10 16 N/A
7:14 pm 19:14 Partly Cloudy 21 -6 10 -12 63 63 N N/A 30.36 1028 10 16 N/A
7:34 pm 19:34 Clear 21 -6 10 -12 63 63 S 3 6 30.36 1028 10 16 N/A
7:54 pm 19:54 Clear 19 -7 10 -12 68 68 S 3 6 30.36 1028 10 16 N/A
8:14 pm 20:14 Clear 21 -6 10 -12 63 63 SSE 6 9 30.36 1028 10 16 N/A
8:34 pm 20:34 Clear 19 -7 10 -12 68 68 S 6 9 30.36 1028 10 16 N/A
8:54 pm 20:54 Clear 19 -7 10 -12 68 68 S 6 9 30.36 1028 10 16 N/A
9:14 pm 21:14 Partly Cloudy 19 -7 10 -12 68 68 S 3 6 30.36 1028 10 16 N/A
9:34 pm 21:34 Mostly Cloudy 19 -7 10 -12 68 68 S 6 9 30.36 1028 10 16 N/A
9:54 pm 21:54 Cloudy 19 -7 10 -12 68 68 S 5 7 30.33 1027 10 16 N/A
10:14 pm 22:14 Cloudy 19 -7 10 -12 68 68 S 5 7 30.33 1027 10 16 N/A
10:34 pm 22:34 Mostly Cloudy 19 -7 10 -12 68 68 SSW 5 7 30.33 1027 10 16 N/A
10:54 pm 22:54 Partly Cloudy 19 -7 10 -12 68 68 S 6 9 30.33 1027 10 16 N/A
11:14 pm 23:14 Partly Cloudy 19 -7 10 -12 68 68 SSW 6 9 30.33 1027 10 16 N/A
11:34 pm 23:34 Partly Cloudy 19 -7 10 -12 68 68 SW 6 9 30.33 1027 10 16 N/A
11:54 pm 23:54 Mostly Cloudy 19 -7 10 -12 68 68 S 5 7 30.33 1027 10 16 N/A

Powered by AerisWeather